Weather History for Lafayette, LA

Change the Weather History Date:

Saturday, November 10, 2012

  Actual Average Record
Temperature  
Mean Temperature 67 °F 63 °F  
Max Temperature 80 °F 74 °F 87 °F (1927)
Min Temperature 53 °F 53 °F 28 °F (1956)
Degree Days  
Heating Degree Days 0 4  
Month to date heating degree days 22 35  
Since 1 July heating degree days 69 71  
Cooling Degree Days 2    
Growing Degree Days 16 (Base 50)    
Moisture  
Dew Point 56 °F    
Average Humidity 68    
Maximum Humidity 93    
Minimum Humidity 42    
Precipitation  
Precipitation 0.00 in 0.14 in 3.75 in (1940)
Month to date precipitation 0.54 1.55  
Year to date precipitation 58.53 52.12  
Snow  
Snow 0.00 in 0.00 in 0.00 in ()
Month to date snowfall 0.0 0.0  
Since 1 July snowfall 0.0 0.0  
Since 1 September snowfall 0.0 0.0  
Snow Depth 0.00 in    
Sea Level Pressure  
Sea Level Pressure 30.14 in    
Wind  
Wind Speed 5 mph (SE)    
Max Wind Speed 15 mph    
Max Gust Speed 22 mph    
Visibility 10 miles    
Events      
T = Trace of Precipitation, MM = Missing Value Source: NWS Daily Summary

Daily Weather History Graph

Daily Weather History Graph

Search for Another Location

Airport:

Trip Planner

Search our weather history database for the weather conditions in past years. The results will help you decide how hot, cold, wet, or windy it might be!

Date:

Astronomy

Nov. 10, 2012 Rise Set
Actual Time 6:29 AM CST 5:13 PM CST
Civil Twilight 6:04 AM CST 5:38 PM CST
Nautical Twilight 5:35 AM CST 6:07 PM CST
Astronomical Twilight 5:07 AM CST 6:36 PM CST
Moon 2:49 AM CST (11/10) 2:49 PM CST (11/10)
Length of Visible Light 11h 34m
Length of Day
10h 44m
Waning Crescent, 14% of the Moon is Illuminated
Nov 10
Waning Crescent
Nov 13
New
Nov 20
First Quarter
Nov 28
Full
Dec 6
Last Quarter

Hourly Weather History & Observations

Time (CST) Temp. Heat Index Dew Point Humidity Pressure Visibility Wind Dir Wind Speed Gust Speed Precip Events Conditions
12:53 AM 55.9 °F - 54.0 °F 93% 30.17 in 10.0 mi Calm Calm - N/A   Clear
1:53 AM 55.9 °F - 53.1 °F 90% 30.16 in 10.0 mi Calm Calm - 0.01 in   Clear
2:53 AM 53.1 °F - 52.0 °F 96% 30.16 in 10.0 mi Calm Calm - N/A   Clear
3:53 AM 55.0 °F - 53.1 °F 93% 30.15 in 10.0 mi Variable 3.5 mph - N/A   Clear
4:53 AM 55.9 °F - 53.1 °F 90% 30.15 in 10.0 mi ESE 4.6 mph - N/A   Clear
5:53 AM 55.4 °F - 53.6 °F 94% 30.15 in 10.0 mi East 3.5 mph - N/A   Clear
6:53 AM 57.0 °F - 53.1 °F 87% 30.16 in 10.0 mi ESE 4.6 mph - N/A   Clear
7:53 AM 61.0 °F - 55.0 °F 81% 30.18 in 10.0 mi ESE 3.5 mph - N/A   Clear
8:53 AM 66.9 °F - 57.0 °F 70% 30.19 in 10.0 mi ESE 4.6 mph - N/A   Clear
9:53 AM 72.0 °F - 57.9 °F 61% 30.20 in 10.0 mi Variable 5.8 mph - N/A   Mostly Cloudy
10:53 AM 75.9 °F - 57.9 °F 54% 30.19 in 10.0 mi Variable 5.8 mph - N/A   Mostly Cloudy
11:53 AM 78.1 °F - 55.9 °F 46% 30.16 in 10.0 mi SE 6.9 mph - N/A   Mostly Cloudy
12:53 PM 80.1 °F 80.1 °F 55.0 °F 42% 30.13 in 10.0 mi South 12.7 mph 18.4 mph N/A   Partly Cloudy
1:53 PM 78.1 °F - 53.1 °F 42% 30.12 in 10.0 mi South 10.4 mph 17.3 mph N/A   Overcast
2:53 PM 77.0 °F - 55.0 °F 47% 30.11 in 10.0 mi South 10.4 mph 17.3 mph N/A   Overcast
3:53 PM 75.9 °F - 55.0 °F 48% 30.10 in 10.0 mi South 12.7 mph - N/A   Overcast
4:53 PM 73.9 °F - 57.9 °F 57% 30.10 in 10.0 mi SSE 6.9 mph - N/A   Overcast
5:53 PM 72.0 °F - 57.9 °F 61% 30.11 in 10.0 mi SE 4.6 mph - N/A   Overcast
6:53 PM 69.1 °F - 57.9 °F 68% 30.11 in 10.0 mi SE 4.6 mph - N/A   Clear
7:53 PM 68.0 °F - 59.0 °F 73% 30.12 in 10.0 mi SE 6.9 mph - N/A   Clear
8:53 PM 66.9 °F - 59.0 °F 76% 30.12 in 10.0 mi SE 4.6 mph - N/A   Clear
9:53 PM 66.2 °F - 59.0 °F 78% 30.12 in 10.0 mi SE 5.8 mph - N/A   Clear
10:53 PM 66.0 °F - 59.0 °F 78% 30.12 in 10.0 mi SE 3.5 mph - N/A   Clear
11:53 PM 66.0 °F - 59.0 °F 78% 30.10 in 10.0 mi Variable 4.6 mph - N/A   Clear